GFSFLT1_850_dewp_021.txt.gz
Dewpoint
7 7 5 5 8 11 13 12 11 9 8 8 8 8 8 7 6 5 5 4 0 3 3 1 -0 2 2 3 3 2 2 -1
8 9 9 9 10 11 12 10 10 10 10 10 10 8 7 6 4 4 2 1 1 0 2 2 3 3 3 2 2 1 -2 -5
9 10 10 10 11 11 11 11 10 11 10 8 7 7 5 4 3 1 1 1 2 2 2 3 2 2 1 -0 -1 -1 -3 -4
9 10 10 11 11 11 11 11 10 8 8 7 6 5 3 3 3 2 2 3 2 2 2 2 1 -1 -3 -3 -1 -1 -3 -4
9 10 11 11 11 10 9 9 8 8 5 3 3 3 3 4 2 3 3 2 2 1 0 -0 -1 -1 -1 -2 -4 -2 -2 -4
9 9 9 9 8 8 7 7 4 4 4 5 4 4 3 2 2 1 -1 -3 -5 -6 -6 -5 -1 -1 -1 -1 -1 -2 -3 -3
6 6 6 6 6 6 5 3 4 4 4 4 4 2 0 -1 -3 -6 -7 -9 -9 -9 -8 -6 -5 -2 -1 -2 -2 -2 -2 -2
3 3 3 4 5 5 4 3 4 4 2 1 -0 -1 -5 -6 -6 -8 -8 -9 -9 -9 -6 -6 -4 -4 -2 -2 -1 -1 -1 -4
2 2 2 3 4 4 3 3 3 1 -0 -2 -3 2 1 -5 -7 -7 -8 -8 -9 -8 -7 -4 -3 -3 -2 -3 -2 -2 -3 -3
1 2 3 3 4 4 3 2 0 -1 -3 0 2 -0 -6 -5 -6 -6 -8 -8 -9 -9 -6 -5 -4 -3 -2 -1 -1 -1 -3 -4
2 2 3 4 4 4 3 0 -2 -2 0 0 -3 -7 -6 -5 -5 -6 -7 -8 -7 -7 -7 -6 -6 -5 -4 -2 -2 -4 -3 -3
2 3 3 3 4 3 1 -2 -1 1 0 -3 -8 -6 -5 -5 -5 -6 -7 -7 -7 -7 -7 -6 -5 -6 -6 -5 -4 -3 -3 -3
3 3 3 3 3 2 -1 -1 -0 -1 -3 -2 -5 -5 -6 -6 -5 -6 -7 -7 -6 -7 -7 -6 -6 -6 -6 -4 -4 -3 -3 -5
3 4 3 3 3 0 -1 -1 -1 -3 -2 -6 -7 -6 -6 -6 -5 -6 -6 -7 -7 -7 -6 -6 -6 -4 -5 -5 -7 -6 -6 -6
3 4 3 3 3 -0 -1 -1 -0 -0 -5 -8 -8 -7 -6 -5 -5 -6 -6 -6 -6 -6 -6 -7 -6 -6 -5 -5 -5 -5 -5 -6
3 4 2 2 1 -0 -2 -1 1 -3 -6 -8 -8 -7 -6 -5 -6 -6 -6 -6 -6 -7 -7 -7 -7 -5 -4 -5 -6 -5 -6 -6
3 3 2 1 0 -1 -3 0 -2 -3 -6 -7 -7 -7 -6 -6 -7 -6 -7 -7 -7 -7 -7 -7 -6 -4 -5 -8 -9 -8 -8 -7
2 2 2 1 -1 -2 -3 -0 -3 -5 -6 -7 -7 -7 -6 -8 -8 -9 -8 -7 -6 -7 -7 -6 -5 -4 -6 -9 -9 -8 -8 -9
1 1 1 1 0 -3 -1 -3 -4 -5 -6 -7 -7 -7 -10 -10 -9 -9 -8 -7 -6 -7 -7 -6 -6 -5 -7 -9 -9 -10 -9 -9

GFSFLT1_850_dewp_024.txt.gz
Dewpoint
5 4 4 6 10 11 11 11 9 8 7 7 7 7 8 7 6 6 4 0 -0 1 3 2 2 3 3 3 2 1 1 1
6 6 5 5 9 11 11 11 11 10 8 9 9 9 7 6 5 5 4 2 2 1 2 3 3 3 2 2 -1 -2 -2 -3
8 8 8 8 11 11 11 11 11 10 9 9 9 7 7 5 4 1 2 2 2 2 2 2 2 1 -2 -4 -3 -3 -1 -2
8 9 10 10 10 11 11 10 10 10 9 8 7 6 5 4 3 3 2 2 2 1 1 0 -3 -2 -2 -2 -2 -2 -1 -1
7 9 10 10 10 11 10 10 10 9 8 7 6 4 3 4 3 3 3 3 2 -1 -3 -4 -3 -3 -1 -2 -1 -2 -2 -2
8 9 9 10 10 10 10 9 8 8 4 4 5 4 4 3 3 1 -1 -3 -4 -7 -8 -8 -10 -10 -5 -3 -2 -1 -1 -2
7 9 9 10 10 9 8 7 5 4 5 5 4 3 2 1 -1 -3 -2 -6 -9 -9 -10 -13 -18 -8 -5 -3 -2 -2 -2 -1
8 8 8 8 8 7 6 4 4 5 5 4 4 2 -0 -2 1 0 -5 -10 -10 -11 -13 -14 -10 -8 -4 -2 -2 -1 -2 -3
6 7 6 6 6 5 4 4 4 4 2 1 0 -2 1 2 -1 -12 -15 -11 -13 -11 -10 -11 -12 -5 -3 -2 -2 -4 -3 -3
4 4 4 4 5 5 4 4 3 2 0 -1 -2 1 1 -4 -10 -11 -10 -12 -10 -9 -9 -9 -7 -6 -5 -3 -5 -2 -2 -3
2 2 3 4 5 4 3 3 2 0 -1 -1 1 -0 -5 -8 -10 -6 -7 -9 -11 -8 -7 -7 -6 -6 -6 -5 -4 -4 -4 -4
2 2 3 4 4 4 4 3 0 -1 -1 1 -0 -3 -6 -7 -5 -5 -6 -7 -7 -6 -7 -7 -6 -6 -6 -6 -5 -5 -4 -5
2 2 3 4 4 4 4 2 -1 -0 0 -0 -2 -6 -5 -5 -5 -5 -5 -6 -6 -6 -6 -7 -6 -6 -6 -7 -8 -6 -6 -5
3 3 3 4 4 4 3 1 -1 0 -1 -3 -4 -5 -5 -6 -6 -5 -5 -6 -6 -6 -6 -6 -6 -6 -5 -4 -5 -5 -6 -6
2 3 4 4 3 4 3 -0 -0 -0 -2 -2 -6 -6 -6 -6 -5 -5 -5 -6 -6 -6 -6 -6 -7 -7 -6 -5 -5 -5 -6 -5
1 3 4 4 3 3 2 -0 -0 -1 -0 -6 -6 -8 -7 -6 -5 -5 -6 -6 -6 -6 -6 -7 -7 -7 -5 -4 -5 -7 -6 -6
-0 2 4 4 3 3 2 -0 -1 1 -2 -5 -7 -7 -6 -6 -6 -5 -7 -7 -7 -7 -6 -7 -6 -6 -5 -5 -6 -10 -10 -9
-1 1 3 4 3 2 2 -0 -2 -0 -2 -5 -5 -6 -6 -5 -7 -9 -9 -9 -8 -7 -6 -6 -6 -6 -6 -6 -9 -12 -12 -9
-0 1 2 2 2 1 0 -2 -2 -1 -3 -5 -6 -4 -6 -9 -11 -13 -9 -9 -8 -7 -6 -6 -6 -6 -6 -6 -7 -10 -10 -9

GFSFLT1_850_dewp_030.txt.gz
Dewpoint
9 9 9 7 -1 2 6 8 8 7 8 8 8 6 5 6 6 6 6 6 4 -0 -0 -1 -1 -1 -0 0 1 0 -5 -11
8 8 9 8 2 -0 1 0 5 6 8 7 7 4 6 7 7 5 3 0 -2 -1 -1 -1 -1 0 0 -1 -6 -11 -14 -15
7 7 9 8 7 7 5 3 2 5 7 7 5 5 7 7 6 5 1 -1 -1 -1 -0 -0 -2 -2 -5 -11 -13 -14 -13 -10
6 6 7 8 9 8 9 8 8 7 8 9 5 7 8 7 6 5 2 0 0 1 -0 -1 0 -5 -12 -11 -9 -7 -5 -4
4 5 6 7 8 9 9 9 10 10 9 9 5 7 6 6 5 5 2 1 1 1 0 1 -1 -7 -8 -11 -16 -13 -6 -3
5 5 5 7 8 9 9 10 11 11 9 7 7 6 5 5 6 4 3 2 2 -0 1 -1 -6 -11 -16 -23 -22 -16 -7 -2
7 7 8 9 10 10 11 10 10 10 9 9 8 7 7 7 5 4 3 3 -1 -1 -6 -7 -13 -19 -23 -25 -21 -8 -4 -2
7 8 9 9 10 10 10 9 9 10 10 10 10 9 9 6 4 4 3 -1 -1 -0 -10 -15 -18 -20 -19 -16 -12 -9 -4 -3
8 8 9 10 10 10 10 9 9 8 9 8 7 6 5 4 4 3 -1 -1 -7 -11 -16 -15 -18 -19 -18 -17 -14 -11 -6 -4
8 9 9 10 10 9 9 9 9 8 6 6 5 4 4 3 1 0 -2 -8 -9 -12 -13 -17 -17 -17 -17 -16 -12 -7 -7 -6
8 9 10 10 10 9 9 9 9 8 6 5 4 3 2 0 0 -1 -4 -5 -9 -9 -11 -14 -15 -12 -14 -12 -8 -6 -5 -6
8 9 9 9 10 9 9 8 8 7 5 4 4 3 1 -0 -0 -2 -7 -5 -3 -6 -8 -9 -10 -8 -10 -10 -6 -6 -6 -6
7 8 8 8 8 7 6 5 4 3 3 4 3 2 0 -0 -2 -5 -5 -3 -4 -5 -5 -6 -7 -7 -9 -11 -7 -7 -5 -6
7 7 7 7 6 5 4 3 3 3 4 4 2 1 -1 0 -4 -4 -4 -4 -5 -5 -5 -6 -8 -7 -8 -7 -8 -7 -5 -5
6 6 6 5 4 4 3 4 4 4 4 3 1 -0 -0 -1 -5 -4 -3 -5 -5 -4 -6 -9 -9 -8 -7 -6 -7 -6 -5 -5
5 4 4 4 4 4 4 4 4 4 3 2 0 -0 -1 -3 -4 -4 -5 -4 -3 -4 -9 -10 -10 -7 -6 -6 -6 -6 -7 -6
0 2 3 3 3 3 4 4 4 4 3 1 -0 -1 -3 -4 -4 -5 -4 -3 -3 -9 -8 -11 -8 -6 -6 -6 -6 -6 -6 -7
-0 0 2 3 3 3 4 4 5 4 1 -0 -1 -2 -4 -4 -5 -5 -3 -1 -3 -6 -11 -8 -7 -7 -7 -6 -6 -6 -6 -7
-1 -0 1 3 3 4 4 5 4 1 -0 -1 -1 -4 -5 -5 -4 -2 -1 -1 -6 -10 -9 -8 -8 -7 -6 -6 -6 -6 -6 -6

GFSFLT1_850_dewp_033.txt.gz
Dewpoint
5 5 7 8 9 9 8 9 9 7 8 8 10 11 10 9 6 5 5 6 7 7 7 4 -1 -0 -0 -1 -1 -5 -11 -15
7 7 7 8 10 10 9 9 8 7 8 8 10 9 7 6 7 6 6 6 6 4 0 -1 0 -0 -1 -2 -6 -13 -18 -20
9 8 8 8 9 9 10 9 8 8 8 8 8 8 7 6 7 6 5 3 0 -1 0 0 -0 -1 -1 -3 -11 -17 -19 -20
9 8 8 8 8 5 4 4 5 7 8 8 9 8 7 7 7 7 4 1 0 1 1 1 -1 -0 -1 -3 -13 -17 -21 -20
8 9 8 8 7 6 4 2 2 3 6 9 9 8 6 6 7 6 5 3 2 1 1 -0 0 -2 -3 -10 -15 -22 -22 -15
7 8 8 7 9 7 6 6 6 5 6 9 9 9 7 6 7 6 5 4 2 2 1 -1 -4 -4 -7 -18 -24 -23 -17 -9
6 6 7 8 8 8 8 8 8 8 9 9 10 9 7 6 6 5 5 4 3 2 -1 -3 -3 -3 -19 -18 -23 -21 -13 -6
5 5 6 7 7 8 8 8 10 10 10 11 10 9 7 8 6 6 5 4 3 -0 -4 -5 -1 -8 -10 -20 -19 -17 -14 -7
5 5 5 6 6 7 9 9 9 10 10 10 9 8 9 9 8 6 4 3 -0 -4 -5 -1 -6 -16 -19 -18 -18 -15 -12 -8
5 6 7 7 8 8 8 9 9 9 8 9 9 9 9 9 8 5 4 -1 -2 -1 2 -11 -10 -15 -14 -15 -16 -15 -10 -6
6 7 7 8 8 9 8 9 9 8 9 8 8 8 7 7 6 4 2 2 2 2 -6 -3 -7 -9 -13 -13 -13 -13 -8 -7
6 6 7 8 9 9 8 9 9 9 9 8 7 6 5 4 4 2 0 1 -0 -6 -2 -4 -6 -10 -11 -9 -11 -12 -9 -8
4 6 8 8 8 9 9 9 9 9 8 7 7 6 4 3 2 1 -1 -3 -6 -3 -5 -5 -5 -10 -10 -12 -9 -7 -8 -9
8 8 8 8 9 9 9 9 9 8 7 7 6 4 4 3 1 -0 -1 -4 -4 -4 -5 -5 -8 -10 -11 -10 -8 -6 -7 -7
7 8 8 9 9 9 9 8 8 7 6 5 4 4 4 3 0 -0 -3 -4 -4 -5 -5 -5 -7 -8 -10 -8 -6 -6 -6 -6
7 7 8 8 9 9 8 8 7 6 5 4 5 4 3 1 -1 -4 -5 -4 -5 -4 -4 -4 -5 -9 -9 -6 -6 -6 -6 -6
5 6 6 6 7 7 7 7 6 5 5 5 4 1 -1 -3 -4 -4 -4 -4 -5 -4 -1 -1 -3 -9 -7 -7 -7 -6 -6 -6
-1 0 1 2 3 3 4 5 5 5 4 4 2 -0 -1 -3 -3 -4 -4 -3 -1 -1 -1 -3 -8 -8 -8 -7 -6 -6 -6 -6
-1 -1 0 1 3 4 4 4 5 4 3 2 1 -1 -3 -4 -5 -3 -1 -1 -2 -1 -5 -8 -10 -12 -10 -6 -6 -6 -6 -6

GFSFLT1_850_dewp_036.txt.gz
Dewpoint
2 4 5 5 7 9 7 8 7 5 4 8 9 10 10 9 9 9 7 5 6 8 8 8 6 1 -0 -0 -1 -6 -12 -15
3 3 5 6 9 8 7 7 7 7 7 8 8 9 9 10 10 8 6 6 6 8 8 6 1 0 0 -2 -6 -10 -12 -16
5 4 4 5 6 7 7 8 8 8 7 7 8 8 9 9 8 6 7 6 7 7 5 1 1 1 -1 -3 -6 -11 -17 -22
7 7 6 5 5 5 7 7 7 8 8 8 8 9 10 8 7 7 6 5 5 4 2 1 1 -1 -2 -3 -10 -19 -22 -25
8 8 7 7 7 6 7 6 7 8 8 7 8 8 9 8 7 7 6 4 2 2 1 1 0 -1 -3 -5 -12 -11 -10 -22
6 7 7 7 7 7 7 7 7 9 8 8 8 9 9 8 7 7 6 4 3 2 2 1 -1 -2 -2 0 -2 -0 -4 -26
6 5 6 8 7 7 7 7 6 8 8 8 8 9 9 9 8 7 6 5 4 3 2 1 -3 -2 1 2 3 -10 -25 -26
5 5 5 6 7 7 8 8 7 6 6 7 8 8 10 9 8 7 6 5 5 4 2 1 -3 -1 3 1 -15 -20 -23 -22
5 4 5 5 6 7 8 8 7 7 6 7 8 9 10 9 8 8 7 5 5 4 2 -2 1 3 2 -5 -15 -19 -21 -16
4 4 4 5 5 5 6 7 7 7 7 9 10 10 10 9 8 8 7 6 5 4 2 1 2 0 -3 -11 -18 -18 -17 -15
2 3 3 4 4 5 5 5 7 7 8 8 8 9 8 8 9 8 8 7 6 3 0 3 -2 -3 -7 -14 -13 -13 -12 -12
2 3 4 4 5 5 6 7 8 8 9 9 9 9 8 6 6 7 7 6 4 -0 2 -0 -2 -6 -9 -11 -8 -10 -9 -8
4 4 5 5 5 6 7 8 6 7 6 8 8 8 6 7 7 6 5 4 0 1 -4 -4 -5 -6 -9 -5 -6 -9 -7 -7
4 5 5 6 7 8 8 6 6 6 6 6 7 8 7 7 5 4 3 -0 -2 -4 -4 -4 -5 -7 -6 -2 -9 -9 -7 -6
3 5 6 7 8 7 7 6 6 6 6 6 7 6 6 5 4 1 -1 -3 -1 -4 -4 -4 -5 -4 -1 -5 -8 -7 -6 -6
4 5 7 8 8 8 7 7 8 8 8 7 6 6 5 3 2 1 -2 -4 -5 -5 -5 -5 -4 -1 -1 -3 -8 -6 -6 -7
5 6 6 7 7 7 8 8 8 8 7 6 5 5 2 2 1 -1 -3 -4 -4 -3 -4 -3 -1 -1 -3 -6 -7 -7 -7 -7
1 1 1 2 2 3 3 4 6 6 6 6 4 3 2 1 -2 -3 -3 -3 -2 -3 -2 -1 -1 -1 -6 -8 -8 -8 -7 -6
-1 -1 -2 -2 -1 -0 2 4 5 5 5 4 3 2 1 -1 -3 -3 -2 -2 -2 -1 -1 -1 -2 -7 -10 -12 -11 -9 -6 -6

GFSFLT1_850_dewp_039.txt.gz
Dewpoint
7 7 8 7 6 7 7 7 7 9 7 2 3 -1 7 6 7 7 7 7 7 8 9 8 8 7 3 0 0 -2 -7 -12
5 6 6 6 5 6 9 9 7 8 5 1 6 7 6 8 8 8 8 7 6 7 8 8 8 5 1 1 -1 -3 -9 -17
5 4 5 5 5 6 8 9 7 7 6 4 7 8 9 9 9 8 8 6 6 7 8 8 6 1 1 -1 -1 -6 -15 -13
7 4 3 3 5 6 8 8 7 7 7 7 7 8 8 9 9 9 7 6 6 7 7 6 2 1 0 -1 -4 -5 -3 -7
7 6 5 4 3 4 6 8 8 7 8 8 8 7 8 8 8 8 7 7 6 6 5 3 1 1 -1 -3 -0 -2 1 -0
6 6 6 6 5 5 5 6 7 8 7 9 8 9 8 8 9 8 7 6 5 4 3 2 1 1 -2 -1 2 3 3 -1
7 6 7 7 7 7 6 6 7 8 7 7 8 9 8 9 9 8 8 6 6 4 3 2 2 -0 -3 0 3 4 -2 -10
5 5 5 6 6 6 7 7 8 8 8 7 8 8 9 9 9 9 9 7 6 5 4 3 1 -1 -2 1 3 -0 -10 -18
5 5 5 4 5 5 7 8 7 8 7 6 7 7 8 9 10 10 9 8 7 5 4 3 1 -2 -0 3 0 -6 -17 -11
-1 2 5 5 5 5 5 6 8 8 6 6 6 7 7 8 9 9 8 8 7 6 4 3 -1 -1 3 0 -6 -14 -9 -8
1 2 3 4 5 5 5 6 7 7 7 7 7 8 8 9 10 10 9 8 7 6 4 1 -2 1 2 -1 -11 -9 -2 -8
-1 0 2 3 4 5 5 6 6 5 6 7 8 7 8 8 7 7 8 8 7 6 3 -2 1 0 -5 -10 -8 -3 -2 -9
1 1 2 3 3 4 5 5 5 6 6 6 4 5 6 6 6 6 8 8 7 5 -1 -1 -0 -4 -6 -5 -5 -1 -7 -8
1 2 3 4 5 5 6 7 7 7 6 6 6 6 6 6 8 7 7 7 6 4 -3 -1 0 -5 -5 -5 -3 -1 -6 -7
3 5 5 5 6 7 7 7 7 6 6 6 8 8 9 8 7 6 6 5 4 -2 -3 -2 -2 -5 -4 -4 -0 -1 -5 -6
5 6 7 7 8 9 9 8 9 9 9 9 9 7 7 6 5 4 2 -1 -4 -4 -4 -3 -4 -3 -3 -0 -1 -4 -7 -7
5 6 6 6 7 7 7 7 7 7 7 7 7 6 5 4 3 0 -1 -3 -2 -4 -5 -4 -4 -1 -1 -1 -1 -6 -7 -7
1 1 1 1 2 2 2 3 4 5 6 6 6 5 4 3 1 0 -1 -2 -3 -4 -3 -0 -0 -0 -1 -2 -7 -7 -9 -11
-1 -1 -1 -1 -1 -0 1 2 3 4 5 5 4 3 2 1 0 -1 -2 -2 -3 0 -0 -1 -1 -1 -2 -8 -9 -11 -13 -13

GFSFLT1_850_dewp_045.txt.gz
Dewpoint
9 8 7 6 8 8 8 8 9 8 8 9 8 6 7 6 7 8 9 10 6 6 9 9 8 8 8 7 6 4 1 -0
9 8 8 7 7 8 8 9 8 8 9 8 7 6 6 6 8 9 10 10 8 8 9 9 8 8 8 7 6 3 1 -0
9 9 7 9 8 8 8 8 9 10 10 10 7 6 5 6 8 10 9 10 10 9 10 9 8 8 7 7 5 3 2 -0
7 8 8 8 8 8 8 8 9 9 9 9 8 7 6 6 8 9 9 10 10 10 10 9 8 8 7 7 5 2 1 2
4 6 8 8 8 9 9 9 9 9 9 9 9 7 7 9 8 9 10 11 10 10 9 8 8 7 7 6 4 2 1 2
4 4 4 7 9 9 9 9 9 9 10 9 9 9 8 8 9 10 10 10 10 9 9 8 7 7 6 5 2 1 1 0
3 4 5 5 6 8 9 9 9 9 10 10 10 10 9 9 9 10 10 10 9 8 8 7 7 7 5 4 2 1 -1 -0
2 3 5 5 6 7 8 9 8 9 10 10 10 10 7 7 10 11 9 9 8 8 8 8 7 6 5 3 2 1 -1 -0
2 2 3 5 6 8 9 9 9 9 11 10 4 5 5 5 5 7 9 8 8 8 8 8 7 6 5 3 2 -1 -1 1
1 2 2 4 6 8 9 10 10 10 11 10 8 6 6 5 5 8 8 9 9 9 8 8 7 5 4 3 0 -1 -0 -2
-1 1 2 4 5 7 9 11 11 11 11 11 8 8 6 5 5 7 9 9 9 9 9 8 7 5 4 3 -1 -1 -1 -3
2 2 2 3 5 7 9 11 12 12 12 11 11 8 8 8 8 9 10 9 9 9 8 7 6 4 5 -0 -1 -1 -2 -2
1 4 5 6 7 7 9 11 11 11 11 11 12 10 10 9 10 10 10 9 8 8 8 8 6 5 3 -1 -1 -2 -3 -2
1 5 7 7 8 9 10 10 10 10 11 11 11 11 10 11 10 10 9 9 8 8 7 6 5 4 1 -2 -0 -2 -1 1
0 4 6 7 9 10 10 11 11 11 11 11 11 10 9 9 9 9 9 8 7 7 6 5 4 2 -1 -0 -1 0 0 0
-1 4 6 8 9 10 11 11 10 10 10 10 9 9 8 8 7 7 7 7 7 6 6 4 3 2 1 0 1 -1 -1 -0
4 6 8 9 9 10 10 9 9 9 8 8 7 6 6 6 6 5 5 4 3 3 2 2 1 0 -1 0 -2 -1 -1 -1
5 7 8 8 9 8 8 8 7 6 5 5 5 5 5 4 4 3 2 0 -1 -3 -1 -1 -2 -0 -1 -3 -2 -1 -1 -1
5 5 6 6 6 6 5 5 5 4 3 3 4 4 4 3 2 1 0 -0 0 0 -1 -2 -1 -1 -1 -1 -1 -2 -4 -4

GFSFLT1_850_dewp_048.txt.gz
Dewpoint
9 8 7 7 6 6 6 5 5 2 2 3 6 7 7 6 7 7 8 7 6 7 8 9 8 8 8 8 7 6 4 3
9 7 6 6 5 5 4 4 2 3 3 3 8 7 7 6 6 6 8 7 6 6 8 9 7 8 9 8 7 6 4 1
8 7 7 7 7 6 5 6 7 7 7 7 8 7 5 6 6 7 8 9 8 7 8 10 8 8 9 8 7 6 5 2
9 8 7 7 8 8 8 7 7 8 8 6 9 7 6 5 6 7 8 9 8 9 8 9 9 8 8 8 7 6 3 2
8 9 9 8 8 8 8 8 8 7 8 9 8 8 7 5 5 8 8 8 8 9 10 9 10 9 8 8 7 6 3 2
8 8 9 8 8 8 8 8 8 9 8 10 9 9 7 6 7 7 8 8 8 10 10 10 9 9 8 7 7 6 3 1
4 6 8 8 8 8 8 8 8 9 9 7 9 9 8 8 9 9 9 9 9 10 10 10 9 9 8 7 6 5 3 2
4 4 5 7 8 8 9 9 9 9 9 9 8 9 9 8 8 9 9 7 8 8 8 8 9 8 8 7 6 5 3 1
2 4 5 4 5 8 9 9 9 9 9 10 10 5 5 3 7 9 8 6 5 8 9 9 8 8 8 7 6 5 3 3
2 2 4 5 5 5 6 8 9 9 9 9 8 4 4 7 8 6 7 6 6 9 9 9 9 8 7 6 5 4 4 2
-0 2 2 4 5 6 6 7 8 9 9 9 10 8 7 7 8 7 7 7 8 9 9 9 9 8 7 6 5 4 3 -1
0 -0 1 3 4 6 7 8 9 10 10 10 10 10 9 8 8 8 9 9 9 9 9 9 8 7 6 6 4 4 0 -0
2 2 2 2 3 5 9 9 10 10 10 11 10 10 11 10 10 8 10 9 9 9 8 8 7 7 6 5 3 2 -0 -1
-1 3 5 5 6 6 7 10 11 10 10 11 12 11 11 10 10 10 9 9 9 8 8 8 7 5 4 3 2 -0 -2 -1
-3 3 5 7 8 8 9 10 11 11 10 10 11 11 11 10 10 9 9 8 8 8 7 6 6 5 4 3 2 -1 -1 1
-4 -1 5 8 9 10 10 10 10 10 10 11 12 11 9 9 8 8 8 8 7 7 7 6 5 4 4 2 -0 -0 -0 -0
-2 -1 5 8 9 10 11 11 11 10 10 10 10 9 8 7 7 6 6 6 6 5 4 4 3 2 1 1 -1 -0 -1 -1
2 4 7 9 10 10 10 10 9 9 9 8 8 7 6 6 6 5 4 3 2 0 -1 -0 -0 -1 -1 -1 -2 -2 -2 -1
4 7 8 9 9 9 9 8 7 7 6 5 5 5 5 4 3 2 1 0 -0 -1 -0 -0 0 -0 -1 -1 -1 -2 -4 -11

GFSFLT1_850_dewp_051.txt.gz
Dewpoint
8 8 8 8 8 7 7 7 4 6 6 5 4 2 1 1 3 3 3 4 7 7 8 7 8 8 8 8 8 7 6 5
8 7 7 8 7 7 7 8 6 6 6 4 3 4 4 2 2 0 2 1 2 5 7 8 9 6 7 8 8 8 7 5
7 6 6 6 6 6 6 6 6 5 4 2 2 3 5 5 1 4 6 6 6 7 6 7 7 6 8 8 8 8 7 6
8 5 4 5 5 4 3 3 4 3 2 2 4 7 8 6 5 5 6 6 8 8 8 6 7 6 8 8 8 8 7 6
8 7 6 6 5 4 4 3 2 2 3 3 5 8 9 7 4 6 7 8 8 8 7 7 8 8 8 8 8 8 7 6
8 7 7 6 7 7 6 5 5 6 6 6 6 7 8 6 6 4 6 6 7 8 7 7 8 9 10 9 8 8 8 5
7 6 7 7 7 7 7 7 7 7 4 6 8 8 9 8 7 6 5 8 8 8 7 8 8 10 9 9 9 8 7 6
7 8 8 8 8 7 8 7 7 8 7 7 7 9 8 8 7 6 7 7 8 7 7 8 8 8 9 9 9 8 7 6
6 7 7 8 8 8 9 8 8 8 8 8 8 7 7 9 6 8 9 8 8 7 5 8 8 9 8 9 9 8 7 6
5 5 6 6 8 8 8 8 8 8 8 8 9 8 7 8 8 9 8 7 7 8 7 5 6 9 8 9 8 8 7 6
3 4 4 4 5 5 8 8 8 8 9 9 9 9 9 9 6 9 7 7 8 8 7 6 8 9 9 8 8 7 6 4
2 3 4 4 4 5 7 9 9 9 8 8 9 9 10 9 7 6 7 8 8 7 7 8 9 8 8 8 7 7 5 4
-2 1 3 4 5 6 6 5 6 7 8 9 9 9 9 10 9 9 8 8 8 8 8 9 9 8 8 8 7 6 3 3
1 -1 -1 2 5 7 7 6 6 5 6 10 9 10 9 10 10 10 10 10 9 9 9 8 8 7 7 7 6 4 3 3
1 2 1 -0 3 8 9 9 8 9 9 9 9 9 10 10 10 10 10 9 9 8 8 8 8 7 6 5 4 3 3 1
-2 3 3 3 3 7 10 10 11 10 10 10 10 10 11 10 10 9 9 9 8 8 8 7 7 6 5 4 3 2 -0 -1
-6 -4 5 7 7 7 9 10 10 9 8 9 10 11 12 11 9 9 8 8 8 7 7 6 5 4 3 2 1 -0 -0 -0
-5 -3 6 8 9 9 9 9 10 10 10 11 11 11 10 9 8 8 7 7 6 6 5 4 3 2 1 0 -0 -1 -2 -2
0 1 6 8 9 9 10 10 10 10 10 10 10 9 9 8 7 6 5 4 3 2 0 -0 -0 -1 -1 -1 -2 -2 -2 -2

GFSFLT1_850_dewp_054.txt.gz
Dewpoint
7 8 9 8 8 8 8 8 6 5 6 5 3 2 5 5 4 1 1 6 7 6 7 8 7 8 8 8 8 7 7 7
8 7 8 8 8 8 8 8 7 6 5 3 3 2 4 4 2 1 3 5 6 4 7 7 6 6 6 7 8 8 8 7
8 7 7 8 8 8 7 8 7 5 5 5 5 5 4 3 3 2 2 2 1 0 1 3 3 4 5 7 8 7 8 7
7 7 7 8 7 7 7 7 6 5 6 6 5 4 3 2 1 1 2 1 1 3 5 4 5 7 5 7 7 7 8 8
5 5 6 6 5 6 6 7 5 5 6 5 5 3 2 3 2 0 0 1 2 6 7 8 8 7 6 7 7 7 8 8
5 4 3 3 4 5 5 5 6 6 5 2 2 2 3 4 4 1 1 1 5 6 6 8 8 6 7 7 7 7 8 9
7 4 4 3 4 4 3 2 4 5 3 2 2 3 5 5 2 5 4 3 6 7 8 7 6 7 7 8 8 8 9 8
8 7 6 5 5 4 3 3 2 2 1 2 4 4 4 5 6 7 6 5 4 6 7 7 7 7 7 6 8 9 9 8
7 7 6 6 6 6 6 5 5 4 4 4 4 4 5 5 7 8 8 6 6 5 7 8 6 7 7 9 8 9 9 8
7 7 7 6 6 6 6 6 6 6 5 6 4 3 5 7 8 8 9 7 7 7 7 8 6 6 7 8 9 9 8 8
5 7 7 6 6 6 7 7 7 7 6 6 6 6 6 7 7 8 9 8 8 9 8 8 8 7 6 8 9 8 8 8
5 5 5 5 6 7 7 8 8 8 8 8 7 8 8 8 8 8 8 8 8 9 7 8 9 8 7 8 9 9 8 7
2 3 4 5 6 8 8 9 9 8 7 3 4 8 9 9 9 9 9 5 8 8 8 9 9 8 9 9 9 8 8 7
1 2 3 3 4 6 7 7 7 7 7 6 5 9 10 10 8 8 9 8 7 9 8 9 8 8 8 8 8 8 6 6
1 3 3 2 3 4 5 6 7 8 8 7 6 6 10 9 9 6 8 9 10 9 9 9 8 8 7 7 7 7 5 4
0 1 4 4 5 4 4 5 6 6 8 7 8 6 8 10 9 8 8 10 9 9 9 8 8 8 8 7 6 5 4 3
-4 -2 1 4 3 2 2 4 7 7 7 7 7 7 9 9 8 9 11 9 9 8 8 8 8 8 7 6 4 3 3 1
-4 -3 -2 3 4 3 4 5 6 8 9 8 9 9 9 9 9 10 9 9 8 8 8 7 7 6 5 4 3 2 0 -0
-5 -5 -5 3 6 7 7 9 9 7 7 9 8 9 9 10 10 9 8 8 7 7 6 6 5 4 3 2 1 -0 -1 -2